Location: Hiram
(41.3130°N, 81.1440°W)
Time: 22:01:03
(UTC-04:00)

Amateur Radio Satellites - All Passes

Search period start: 16 October 2017 21:31
Search period end: 17 October 2017 21:31
Location: Hiram, 41.3130°N, 81.1440°W

Satellite Date Start Highest point End Downlink Frequencies (MHz)
Time Altitude Azimuth
STRAND 1 16 Oct 21:38:13 21:43:06 44° 290° (WNW) 21:47:57 437.568
ZACube-1 16 Oct 21:41:15 21:45:15 30° 264° (W) 21:49:18 437.345
AAUSAT CUBESAT 2 16 Oct 21:45:23 21:47:49 15° 268° (W) 21:50:17 437.432
UWE-3 16 Oct 21:56:23 21:58:24 13° 271° (W) 22:00:25 435.000/436.395/437.385
YUBILEINY 16 Oct 21:57:08 22:05:58 86° 83° (E) 22:14:49 435.215
O/OREOS (USA 219) 16 Oct 21:57:59 22:02:22 50° 107° (ESE) 22:06:48 437.305
DELFI C3 16 Oct 22:15:46 22:19:40 85° 260° (W) 22:23:35 145.870
BEESAT 2 16 Oct 22:23:44 22:26:27 17° 43° (NE) 22:29:09 435.950
Oscar 11 16 Oct 22:27:24 22:29:59 15° 268° (W) 22:32:35 .
Max Valier Satellite 16 Oct 22:28:35 22:32:20 82° 258° (WSW) 22:36:05 145.860
EO-88 16 Oct 22:28:36 22:32:15 71° 76° (ENE) 22:35:54 145.990 - 145.960
UNISAT 6 16 Oct 22:34:14 22:38:10 27° 95° (E) 22:42:01 437.425
BEESAT 3 16 Oct 22:49:50 22:53:50 87° 60° (ENE) 22:57:43 437.485
TIGRISAT 16 Oct 22:50:00 22:54:17 36° 97° (E) 22:58:27 435.000
FO-29 16 Oct 22:55:48 23:02:24 65° 287° (WNW) 23:09:44 435.910
AO-85 16 Oct 22:59:17 23:03:17 30° 49° (NE) 23:07:31 145.980
PRISM 16 Oct 23:20:56 23:24:42 34° 98° (E) 23:28:26 437.425
LO-87 16 Oct 23:31:49 23:35:17 50° 74° (ENE) 23:38:48 145.935 - 145.965
O/OREOS (USA 219) 16 Oct 23:38:55 23:42:04 18° 305° (NW) 23:45:15 437.305
SPROUT 16 Oct 23:45:44 23:47:47 13° 63° (ENE) 23:49:49 437.525
ESTCUBE 1 16 Oct 23:48:16 23:52:41 57° 73° (ENE) 23:57:06 437.505/2401.250
YUBILEINY 16 Oct 23:55:55 00:01:34 19° 282° (WNW) 00:07:14 435.215
VELOX 1 16 Oct 23:58:43 00:00:52 13° 62° (ENE) 00:02:59 145.980
BEESAT 2 17 Oct 00:00:33 00:04:31 54° 241° (WSW) 00:08:23 435.950
UNISAT 6 17 Oct 00:10:46 00:14:50 30° 291° (WNW) 00:18:49 437.425
EO-79 17 Oct 00:23:01 00:25:43 16° 92° (E) 00:28:23 145.935-145.965
POLYITAN 1 17 Oct 00:26:23 00:29:17 18° 93° (E) 00:32:10 437.675
TIGRISAT 17 Oct 00:27:05 00:30:44 23° 294° (WNW) 00:34:20 435.000
AO-85 17 Oct 00:39:31 00:43:42 35° 245° (WSW) 00:48:10 145.980
FO-29 17 Oct 00:44:03 00:46:24 12° 304° (NW) 00:48:51 435.910
QB50P2 17 Oct 00:45:36 00:49:27 32° 97° (E) 00:53:15 145.880/145.840
AIST 2D 17 Oct 00:51:23 00:54:50 72° 285° (WNW) 00:58:16 435.315
NANOSAT C BR1 17 Oct 00:53:10 00:56:58 31° 96° (E) 01:00:43 145.865
PRISM 17 Oct 00:56:44 00:59:44 20° 293° (WNW) 01:02:43 437.425
DUCHIFAT 1 17 Oct 01:06:09 01:10:07 37° 98° (E) 01:14:02 145.980
RS-15 17 Oct 01:08:45 01:19:48 42° 107° (ESE) 01:30:53 29.354- 29.394
50 SAT 17 Oct 01:14:31 01:16:54 19° 69° (ENE) 01:19:18 437.505
DX 1 17 Oct 01:16:39 01:20:01 23° 66° (ENE) 01:23:24 434.975-435.025
SPROUT 17 Oct 01:18:57 01:23:09 59° 259° (W) 01:27:24 437.525
ESTCUBE 1 17 Oct 01:27:38 01:29:49 13° 269° (W) 01:32:01 437.505/2401.250
BUGSAT 1 17 Oct 01:30:55 01:33:52 18° 93° (E) 01:36:47 437.445
VELOX 1 17 Oct 01:32:27 01:36:46 61° 259° (WSW) 01:41:08 145.980
Oscar 19 17 Oct 01:36:00 01:37:25 11° 89° (E) 01:38:48 437.125/150
UKube-1 17 Oct 01:48:46 01:52:33 31° 69° (ENE) 01:56:21 .
EO-79 17 Oct 01:57:37 02:01:40 42° 288° (WNW) 02:05:41 145.935-145.965
POLYITAN 1 17 Oct 02:01:13 02:05:13 39° 289° (WNW) 02:09:10 437.675
QB50P2 17 Oct 02:21:43 02:25:02 22° 293° (WNW) 02:28:20 145.880/145.840
NANOSAT C BR1 17 Oct 02:29:09 02:32:30 23° 293° (WNW) 02:35:49 145.865
DUCHIFAT 1 17 Oct 02:42:29 02:45:30 19° 294° (WNW) 02:48:29 145.980
50 SAT 17 Oct 02:46:38 02:49:07 20° 265° (W) 02:51:37 437.505
DX 1 17 Oct 02:52:08 02:56:00 32° 263° (W) 02:59:55 434.975-435.025
M-CUBED/EXP-1 PRIME 17 Oct 02:53:56 02:57:18 48° 106° (ESE) 03:00:54 437.505
ITUPSAT 1 17 Oct 02:56:51 03:00:38 24° 65° (ENE) 03:04:25 437.325
MOZHAYETS 4 17 Oct 03:05:08 03:09:07 29° 68° (ENE) 03:13:07
BUGSAT 1 17 Oct 03:05:25 03:09:20 37° 289° (WNW) 03:13:13 437.445
Gurwin Techsat 1B 17 Oct 03:11:42 03:17:01 67° 102° (ESE) 03:22:18 435.225
Oscar 19 17 Oct 03:12:12 03:17:20 83° 285° (WNW) 03:22:27 437.125/150
BEESAT 17 Oct 03:14:27 03:18:46 35° 69° (ENE) 03:23:06 436.000
RS-15 17 Oct 03:19:36 03:31:49 64° 310° (NW) 03:44:01 29.354- 29.394
UKube-1 17 Oct 03:25:11 03:28:35 23° 265° (W) 03:31:59 .
NO-84 17 Oct 03:45:55 03:47:19 11° 122° (ESE) 03:48:43 435.350 FM
AO-7 17 Oct 04:20:16 04:27:58 40° 99° (E) 04:35:38 .
M-CUBED/EXP-1 PRIME 17 Oct 04:30:12 04:31:26 12° 299° (WNW) 04:32:41 437.505
ITUPSAT 1 17 Oct 04:33:44 04:38:12 38° 262° (W) 04:42:42 437.325
CUBESAT XI-V 17 Oct 04:42:08 04:46:43 64° 74° (ENE) 04:51:19 437.345
MOZHAYETS 4 17 Oct 04:42:13 04:46:12 28° 264° (W) 04:50:12
BEESAT 17 Oct 04:52:40 04:56:34 25° 265° (W) 05:00:31 436.000
Gurwin Techsat 1B 17 Oct 04:53:04 04:56:23 17° 299° (WNW) 04:59:42 435.225
Oscar 19 17 Oct 04:54:27 04:55:49 11° 302° (WNW) 04:57:10 437.125/150
KKS-1 17 Oct 05:00:45 05:04:37 31° 69° (ENE) 05:08:31 437.445
ITAMSAT 1 17 Oct 05:15:21 05:20:37 88° 101° (E) 05:25:52 435.822/435.867
NO-84 17 Oct 05:19:51 05:24:10 82° 137° (SE) 05:28:23 435.350 FM
RS-15 17 Oct 05:37:28 05:47:27 27° 339° (NNW) 05:57:16 29.354- 29.394
STARS 17 Oct 05:44:25 05:48:25 36° 70° (ENE) 05:52:27 437.465
DOVE 4 17 Oct 05:58:19 06:02:46 33° 97° (E) 06:07:22 437.250
AO-7 17 Oct 06:12:59 06:20:47 47° 298° (WNW) 06:28:34 .
CUBESAT XI-V 17 Oct 06:22:30 06:24:30 13° 270° (W) 06:26:29 437.345
O/OREOS (USA 219) 17 Oct 06:30:33 06:32:22 12° 50° (NE) 06:34:12 437.305
KKS-1 17 Oct 06:37:33 06:41:09 24° 265° (W) 06:44:48 437.445
LilacSat-2 17 Oct 06:46:56 06:49:55 22° 95° (E) 06:52:53 437.200
XW-2F 17 Oct 06:50:05 06:52:56 21° 94° (E) 06:55:46 145.980 - 146.000
KAITUO 1B 17 Oct 06:55:09 06:57:47 18° 94° (E) 07:00:23 145.475/437.950
ITAMSAT 1 17 Oct 06:57:03 06:59:19 13° 302° (WNW) 07:01:36 435.822/435.867
CUTE-I 17 Oct 06:57:20 07:01:50 26° 95° (E) 07:06:17 437.470
NO-84 17 Oct 06:58:36 07:02:00 22° 334° (NNW) 07:05:17 435.350 FM
XW-2D 17 Oct 06:58:59 07:02:19 29° 97° (E) 07:05:35 145.860 - 145.880
XW-2B 17 Oct 07:12:07 07:15:41 41° 98° (E) 07:19:13 145.730 - 145.750
NUDT-PHONESAT 17 Oct 07:15:15 07:18:33 31° 97° (E) 07:21:48 437.300
STRAND 1 17 Oct 07:15:26 07:19:57 32° 67° (ENE) 07:24:30 437.568
STARS 17 Oct 07:21:35 07:24:50 20° 266° (W) 07:28:08 437.465
XW-2C 17 Oct 07:35:00 07:38:46 86° 103° (ESE) 07:42:29 145.795 - 145.815
DOVE 4 17 Oct 07:36:08 07:40:20 29° 291° (WNW) 07:44:40 437.250
SO-50 17 Oct 07:51:33 07:55:26 29° 114° (ESE) 07:59:19 436.795
RS-15 17 Oct 07:56:07 08:05:36 25° 15° (NNE) 08:14:45 29.354- 29.394
HO-68 17 Oct 08:07:25 08:14:17 44° 99° (E) 08:21:04 435.675
O/OREOS (USA 219) 17 Oct 08:07:48 08:12:26 84° 251° (WSW) 08:17:00 437.305
UWE-3 17 Oct 08:08:22 08:10:37 13° 89° (E) 08:12:48 435.000/436.395/437.385
AO-7 17 Oct 08:09:50 08:11:29 11° 319° (NW) 08:13:08 .
XW-2A 17 Oct 08:15:25 08:17:10 13° 93° (E) 08:18:54 145.665 - 145.685
LilacSat-2 17 Oct 08:21:03 08:24:08 24° 290° (WNW) 08:27:09 437.200
XW-2F 17 Oct 08:23:55 08:27:00 25° 290° (WNW) 08:30:04 145.980 - 146.000
KAITUO 1B 17 Oct 08:28:36 08:31:45 27° 290° (WNW) 08:34:54 145.475/437.950
XW-2D 17 Oct 08:33:40 08:36:16 18° 292° (WNW) 08:38:51 145.860 - 145.880
CUTE 1.7 + AOD 2 17 Oct 08:35:20 08:39:33 82° 100° (E) 08:43:45 437.475
CUTE-I 17 Oct 08:36:59 08:41:58 40° 291° (WNW) 08:46:55 437.470
NO-84 17 Oct 08:39:12 08:40:39 12° 355° (N) 08:42:03 435.350 FM
XW-2B 17 Oct 08:47:34 08:49:29 14° 295° (WNW) 08:51:23 145.730 - 145.750
NUDT-PHONESAT 17 Oct 08:49:47 08:52:09 17° 293° (WNW) 08:54:31 437.300
SEEDS 17 Oct 08:49:49 08:53:59 73° 101° (E) 08:58:08 437.485
STRAND 1 17 Oct 08:54:37 08:59:06 30° 264° (W) 09:03:37 437.568
PCSat 17 Oct 08:56:00 09:00:18 24° 107° (ESE) 09:04:36 145.827
CUBEBUG 2 17 Oct 08:56:50 09:01:34 80° 102° (ESE) 09:06:07 437.445
YUBILEINY 17 Oct 09:04:58 09:10:38 20° 78° (ENE) 09:16:18 435.215
FO-29 17 Oct 09:09:06 09:14:09 54° 71° (ENE) 09:19:28 435.910
AO-73 17 Oct 09:09:35 09:13:23 28° 95° (E) 09:17:05 145.935
AAUSAT CUBESAT 2 17 Oct 09:25:07 09:29:14 80° 102° (ESE) 09:33:21 437.432
ZACube-1 17 Oct 09:28:57 09:33:18 53° 99° (E) 09:37:30 437.345
Tancredo 1 17 Oct 09:30:42 09:31:29 12° 135° (SE) 09:32:16 437.200
SO-50 17 Oct 09:31:47 09:35:48 32° 312° (NW) 09:39:52 436.795
UNISAT 6 17 Oct 09:32:53 09:36:37 24° 67° (ENE) 09:40:23 437.425
UWE-3 17 Oct 09:42:57 09:47:27 57° 286° (WNW) 09:51:46 435.000/436.395/437.385
XW-2A 17 Oct 09:46:59 09:49:57 29° 288° (WNW) 09:52:53 145.665 - 145.685
TIGRISAT 17 Oct 09:48:19 09:52:23 32° 69° (ENE) 09:56:32 435.000
DELFI C3 17 Oct 09:54:22 09:55:50 12° 91° (E) 09:57:16 145.870
HO-68 17 Oct 09:55:23 10:01:50 37° 297° (WNW) 10:08:16 435.675
RS-15 17 Oct 10:09:57 10:21:43 55° 46° (NE) 10:32:47 29.354- 29.394
PRISM 17 Oct 10:10:19 10:13:36 24° 68° (ENE) 10:16:54 437.425
Oscar 11 17 Oct 10:12:18 10:16:38 83° 281° (W) 10:20:54 .
NO-84 17 Oct 10:17:09 10:19:27 15° 16° (NNE) 10:21:40 435.350 FM
SEEDS 17 Oct 10:28:29 10:29:04 10° 298° (WNW) 10:29:38 437.485
CUBEBUG 2 17 Oct 10:35:51 10:37:26 12° 300° (WNW) 10:39:00 437.445
PCSat 17 Oct 10:38:09 10:43:22 48° 305° (NW) 10:48:38 145.827
AO-73 17 Oct 10:45:53 10:49:30 25° 292° (WNW) 10:53:02 145.935
FO-29 17 Oct 10:56:26 10:59:45 17° 270° (W) 11:03:10 435.910
YUBILEINY 17 Oct 10:57:33 11:06:15 84° 277° (W) 11:15:01 435.215
Tancredo 1 17 Oct 11:01:35 11:03:13 25° 331° (NNW) 11:04:52 437.200
ZACube-1 17 Oct 11:06:36 11:09:05 15° 297° (WNW) 11:11:32 437.345
UNISAT 6 17 Oct 11:08:55 11:13:07 34° 263° (W) 11:17:24 437.425
EO-79 17 Oct 11:16:13 11:18:14 13° 63° (ENE) 11:20:14 145.935-145.965
POLYITAN 1 17 Oct 11:19:33 11:21:53 14° 63° (ENE) 11:24:12 437.675
TIGRISAT 17 Oct 11:25:11 11:29:03 26° 266° (W) 11:32:59 435.000
AIST 2D 17 Oct 11:25:16 11:28:30 35° 73° (ENE) 11:31:45 435.315
DELFI C3 17 Oct 11:27:01 11:30:51 51° 286° (WNW) 11:34:41 145.870
EO-88 17 Oct 11:30:30 11:34:08 87° 282° (WNW) 11:37:45 145.990 - 145.960
Max Valier Satellite 17 Oct 11:32:04 11:35:42 57° 285° (WNW) 11:39:17 145.860
nSIGHT-1 17 Oct 11:35:12 11:38:08 34° 137° (SE) 11:41:04 .
QB50P2 17 Oct 11:38:12 11:41:40 25° 68° (ENE) 11:45:09 145.880/145.840
ESTCUBE 1 17 Oct 11:42:43 11:44:21 12° 90° (E) 11:45:59 437.505/2401.250
NANOSAT C BR1 17 Oct 11:45:16 11:48:39 24° 68° (ENE) 11:52:04 145.865
PRISM 17 Oct 11:45:23 11:48:46 26° 264° (W) 11:52:11 437.425
NO-84 17 Oct 11:53:56 11:57:38 53° 38° (NE) 12:00:59 435.350 FM
DUCHIFAT 1 17 Oct 11:57:48 12:01:25 28° 69° (ENE) 12:05:03 145.980
ISS 17 Oct 11:58:46 12:01:56 52° 140° (SE) 12:05:07 437.550
BUGSAT 1 17 Oct 12:21:24 12:23:30 14° 63° (ENE) 12:25:37 437.445
RS-15 17 Oct 12:22:58 12:34:02 49° 250° (WSW) 12:44:32 29.354- 29.394
LO-87 17 Oct 12:31:35 12:35:12 64° 100° (E) 12:38:46 145.935 - 145.965
BEESAT 3 17 Oct 12:40:52 12:42:54 14° 109° (ESE) 12:44:58 437.485
EO-79 17 Oct 12:49:16 12:53:28 59° 259° (W) 12:57:42 145.935-145.965
Oscar 19 17 Oct 12:51:47 12:55:17 19° 62° (ENE) 12:58:47 437.125/150
POLYITAN 1 17 Oct 12:53:00 12:57:11 53° 260° (W) 13:01:24 437.675
Gurwin Techsat 1B 17 Oct 12:56:00 12:58:51 15° 60° (ENE) 13:01:42 435.225
YUBILEINY 17 Oct 12:59:07 13:04:29 17° 300° (WNW) 13:09:55 435.215
AIST 2D 17 Oct 13:00:12 13:01:49 13° 268° (W) 13:03:26 435.315
SPROUT 17 Oct 13:04:54 13:08:19 23° 94° (E) 13:11:42 437.525
nSIGHT-1 17 Oct 13:11:32 13:14:25 30° 334° (NNW) 13:17:19 .
QB50P2 17 Oct 13:13:37 13:17:20 29° 264° (W) 13:21:04 145.880/145.840
ESTCUBE 1 17 Oct 13:17:07 13:21:34 64° 286° (WNW) 13:25:59 437.505/2401.250
NANOSAT C BR1 17 Oct 13:20:29 13:24:13 30° 264° (W) 13:27:58 145.865
VELOX 1 17 Oct 13:22:39 13:26:16 24° 95° (E) 13:29:53 145.980
NO-84 17 Oct 13:32:24 13:34:34 15° 236° (WSW) 13:36:36 435.350 FM
AO-7 17 Oct 13:32:43 13:36:05 13° 44° (NE) 13:39:27 .
DUCHIFAT 1 17 Oct 13:33:32 13:37:01 25° 265° (W) 13:40:33 145.980
ISS 17 Oct 13:35:48 13:38:34 25° 338° (NNW) 13:41:21 437.550
M-CUBED/EXP-1 PRIME 17 Oct 13:39:57 13:43:23 62° 70° (ENE) 13:46:40 437.505
BEESAT 2 17 Oct 13:51:47 13:55:00 24° 113° (ESE) 13:58:17 435.950
BUGSAT 1 17 Oct 13:54:17 13:58:21 55° 260° (W) 14:02:30 437.445
50 SAT 17 Oct 14:05:22 14:07:36 17° 94° (E) 14:09:49 437.505
BEESAT 3 17 Oct 14:16:04 14:20:00 53° 306° (NW) 14:23:58 437.485
Oscar 19 17 Oct 14:29:03 14:34:08 57° 259° (W) 14:39:14 437.125/150
Gurwin Techsat 1B 17 Oct 14:32:48 14:38:06 78° 256° (WSW) 14:43:27 435.225
DX 1 17 Oct 14:39:37 14:43:45 40° 99° (E) 14:47:51 434.975-435.025
SPROUT 17 Oct 14:40:25 14:44:14 31° 290° (WNW) 14:48:00 437.525
nSIGHT-1 17 Oct 14:49:44 14:51:28 14° 354° (N) 14:53:11 .
AO-85 17 Oct 14:53:54 14:57:46 78° 119° (ESE) 15:01:44 145.980
ITAMSAT 1 17 Oct 14:56:10 14:59:35 18° 61° (ENE) 15:03:00 435.822/435.867
VELOX 1 17 Oct 14:58:48 15:02:42 31° 291° (WNW) 15:06:35 145.980
UKube-1 17 Oct 15:10:49 15:15:05 56° 101° (E) 15:19:19 .
ISS 17 Oct 15:14:10 15:15:55 14° 358° (N) 15:17:40 437.550
AO-7 17 Oct 15:19:03 15:27:04 56° 65° (ENE) 15:35:05 .
BEESAT 2 17 Oct 15:28:58 15:32:35 32° 310° (NW) 15:36:15 435.950
50 SAT 17 Oct 15:37:12 15:39:54 23° 290° (WNW) 15:42:35 437.505
Tancredo 1 17 Oct 15:39:14 15:40:37 18° 27° (NNE) 15:41:59 437.200
DX 1 17 Oct 16:16:31 16:19:38 19° 295° (WNW) 16:22:43 434.975-435.025
SO-50 17 Oct 16:22:08 16:26:12 30° 48° (NE) 16:30:18 436.795
nSIGHT-1 17 Oct 16:26:32 16:28:43 17° 14° (NNE) 16:30:55 .
ITAMSAT 1 17 Oct 16:33:25 16:38:32 61° 259° (W) 16:43:42 435.822/435.867
ITUPSAT 1 17 Oct 16:33:41 16:38:23 52° 100° (E) 16:43:03 437.325
MOZHAYETS 4 17 Oct 16:36:15 16:40:50 66° 101° (ESE) 16:45:21
AO-85 17 Oct 16:36:55 16:38:43 13° 321° (NW) 16:40:32 145.980
CUBESAT XI-V 17 Oct 16:39:49 16:42:33 16° 91° (E) 16:45:18 437.345
UKube-1 17 Oct 16:48:19 16:50:36 14° 297° (WNW) 16:52:54 .
ISS 17 Oct 16:50:48 16:53:19 20° 18° (NNE) 16:55:51 437.550
BEESAT 17 Oct 16:51:27 16:56:16 82° 105° (ESE) 17:01:02 436.000
DOVE 4 17 Oct 17:04:31 17:08:03 28° 69° (ENE) 17:11:43 437.250
Tancredo 1 17 Oct 17:10:58 17:12:13 16° 223° (SW) 17:13:27 437.200
AO-7 17 Oct 17:12:51 17:20:06 33° 263° (W) 17:27:25 .
LilacSat-2 17 Oct 17:30:07 17:31:45 12° 65° (ENE) 17:33:23 437.200
XW-2F 17 Oct 17:32:32 17:33:42 11° 64° (ENE) 17:34:53 145.980 - 146.000
XW-2D 17 Oct 17:40:57 17:43:17 16° 67° (ENE) 17:45:38 145.860 - 145.880
PCSat 17 Oct 17:43:03 17:47:20 23° 46° (NE) 17:51:35 145.827
XW-2B 17 Oct 17:53:39 17:56:32 21° 69° (ENE) 17:59:25 145.730 - 145.750
NUDT-PHONESAT 17 Oct 17:55:05 17:57:20 15° 67° (ENE) 17:59:33 437.300
nSIGHT-1 17 Oct 18:02:18 18:05:29 63° 33° (NNE) 18:08:40 .
SO-50 17 Oct 18:02:30 18:06:40 34° 245° (WSW) 18:10:52 436.795
ITUPSAT 1 17 Oct 18:12:35 18:15:47 18° 297° (WNW) 18:18:58 437.325
MOZHAYETS 4 17 Oct 18:15:13 18:17:24 13° 298° (WNW) 18:19:35
CUBESAT XI-V 17 Oct 18:15:45 18:20:13 51° 287° (WNW) 18:24:39 437.345
XW-2C 17 Oct 18:15:54 18:19:28 39° 72° (ENE) 18:23:01 145.795 - 145.815
CUTE-I 17 Oct 18:18:59 18:23:59 43° 69° (ENE) 18:29:00 437.470
ISS 17 Oct 18:26:52 18:30:10 87° 207° (SSW) 18:33:26 437.550
KKS-1 17 Oct 18:27:12 18:31:39 61° 101° (ESE) 18:36:05 437.445
BEESAT 17 Oct 18:31:32 18:33:20 12° 300° (WNW) 18:35:07 436.000
HO-68 17 Oct 18:36:22 18:42:37 34° 62° (ENE) 18:48:53 435.675
DOVE 4 17 Oct 18:42:26 18:45:45 23° 266° (W) 18:49:10 437.250
LilacSat-2 17 Oct 19:01:52 19:05:35 49° 261° (W) 19:09:19 437.200
XW-2F 17 Oct 19:03:37 19:07:20 53° 260° (W) 19:11:03 145.980 - 146.000
UWE-3 17 Oct 19:05:45 19:07:44 13° 62° (ENE) 19:09:44 435.000/436.395/437.385
KAITUO 1B 17 Oct 19:07:28 19:11:11 62° 259° (W) 19:14:54 145.475/437.950
STARS 17 Oct 19:09:14 19:13:41 70° 102° (ESE) 19:18:05 437.465
XW-2D 17 Oct 19:13:37 19:17:09 36° 262° (W) 19:20:42 145.860 - 145.880
PCSat 17 Oct 19:25:47 19:31:07 59° 245° (WSW) 19:36:25 145.827
XW-2B 17 Oct 19:27:19 19:30:33 26° 264° (W) 19:33:48 145.730 - 145.750
NUDT-PHONESAT 17 Oct 19:27:26 19:30:53 35° 262° (W) 19:34:20 437.300
CUTE 1.7 + AOD 2 17 Oct 19:27:30 19:31:39 56° 74° (ENE) 19:35:48 437.475
STRAND 1 17 Oct 19:28:52 19:29:29 10° 88° (E) 19:30:05 437.568
nSIGHT-1 17 Oct 19:39:37 19:41:25 14° 229° (SW) 19:43:14 .
SEEDS 17 Oct 19:41:04 19:45:05 48° 73° (ENE) 19:49:06 437.485
XW-2C 17 Oct 19:51:44 19:53:47 14° 268° (W) 19:55:52 145.795 - 145.815
CUBEBUG 2 17 Oct 19:54:06 19:58:40 65° 74° (ENE) 20:03:22 437.445
CUTE-I 17 Oct 19:59:57 20:04:10 24° 266° (W) 20:08:26 437.470
AO-73 17 Oct 20:04:46 20:08:25 24° 67° (ENE) 20:12:04 145.935
KKS-1 17 Oct 20:05:20 20:07:41 14° 298° (WNW) 20:10:01 437.445
AAUSAT CUBESAT 2 17 Oct 20:14:46 20:18:44 49° 73° (ENE) 20:22:42 437.432
XW-2A 17 Oct 20:17:05 20:20:31 79° 75° (ENE) 20:23:56 145.665 - 145.685
HO-68 17 Oct 20:23:13 20:30:05 49° 260° (W) 20:37:01 435.675
ZACube-1 17 Oct 20:24:03 20:28:20 42° 72° (ENE) 20:32:41 437.345
UWE-3 17 Oct 20:38:55 20:43:32 74° 259° (W) 20:48:13 435.000/436.395/437.385
O/OREOS (USA 219) 17 Oct 20:44:29 20:45:38 11° 97° (E) 20:46:48 437.305
STARS 17 Oct 20:47:37 20:49:25 12° 299° (WNW) 20:51:12 437.465
BEESAT 3 17 Oct 20:57:01 20:58:20 11° 38° (NE) 20:59:39 437.485
STRAND 1 17 Oct 21:04:07 21:09:19 89° 289° (WNW) 21:14:29 437.568
CUTE 1.7 + AOD 2 17 Oct 21:06:05 21:07:48 12° 270° (W) 21:09:31 437.475
Oscar 11 17 Oct 21:06:31 21:10:51 73° 76° (ENE) 21:15:11 .
YUBILEINY 17 Oct 21:07:44 21:16:14 50° 75° (ENE) 21:24:42 435.215
SEEDS 17 Oct 21:18:50 21:21:01 14° 269° (W) 21:23:12 437.485
